FW3936 Weather Reports


Display with metric or nautical units.
time (UTC)temp
F
wind
direction
speed
MPH
gust
MPH
rain 1hr
in
rain 24hr
in
rain mn
in
humidity
%
barometer
mb
20260906105034 76 360 0.0 0.0 0.00 0.00 0.00 72 1013.2
20260906104535 76 360 0.0 0.0 0.00 0.00 0.00 72 1013.2
20260906104037 76 360 0.0 0.0 0.00 0.00 0.00 72 1013.1
20260906103536 76 360 0.0 0.0 0.00 0.00 0.00 72 1013.1
20260906103035 76 360 0.0 0.0 0.00 0.00 0.00 72 1013.1
20260906102535 76 360 0.0 0.0 0.00 0.00 0.00 72 1013.1
20260906102034 76 360 0.0 0.0 0.00 0.00 0.00 72 1013.1
20260906101534 76 360 0.0 0.0 0.00 0.00 0.00 72 1013.0
20260906101033 76 360 0.0 0.0 0.00 0.00 0.00 72 1013.0
20260906100536 76 360 0.0 0.0 0.00 0.00 0.00 72 1012.9
20260906100033 76 360 0.0 0.0 0.00 0.00 0.00 72 1012.9
20260906095532 76 360 0.0 0.0 0.00 0.00 0.00 72 1012.9
20260906095034 76 360 0.0 0.0 0.00 0.00 0.00 72 1012.9
20260906094532 76 360 0.0 0.0 0.00 0.00 0.00 72 1012.9
20260906094032 76 360 0.0 0.0 0.00 0.00 0.00 72 1012.9
20260906093531 76 360 0.0 0.0 0.00 0.00 0.00 72 1012.9
20260906093030 76 360 0.0 0.0 0.00 0.00 0.00 72 1012.9
20260906092529 76 360 0.0 0.0 0.00 0.00 0.00 72 1012.9
20260906092029 76 360 0.0 0.0 0.00 0.00 0.00 72 1013.0
20260906091532 76 360 0.0 0.0 0.00 0.00 0.00 72 1013.1
20260906091028 76 360 0.0 0.0 0.00 0.00 0.00 72 1013.1
20260906090526 76 360 0.0 0.0 0.00 0.00 0.00 72 1013.2
20260906090027 76 360 0.0 0.0 0.00 0.00 0.00 72 1013.1
20260906085530 77 360 0.0 0.0 0.00 0.00 0.00 72 1013.1
20260906085026 77 360 0.0 0.0 0.00 0.00 0.00 72 1013.1
20260906084525 77 360 0.0 0.0 0.00 0.00 0.00 71 1013.2
20260906084028 77 360 0.0 0.0 0.00 0.00 0.00 71 1013.3
20260906083524 77 360 0.0 0.0 0.00 0.00 0.00 71 1013.3
20260906083030 77 360 0.0 0.0 0.00 0.00 0.00 71 1013.4
20260906082522 77 360 0.0 0.0 0.00 0.00 0.00 71 1013.4
20260906082021 77 360 0.0 0.0 0.00 0.00 0.00 71 1013.5
20260906081520 78 360 0.0 0.0 0.00 0.00 0.00 71 1013.4
20260906081019 78 360 0.0 0.0 0.00 0.00 0.00 70 1013.6
20260906080520 78 360 0.0 0.0 0.00 0.00 0.00 70 1013.6
20260906080027 78 360 0.0 0.0 0.00 0.00 0.00 70 1013.6
20260906075518 78 360 0.0 0.0 0.00 0.00 0.00 70 1013.6
20260906075017 78 360 0.0 0.0 0.00 0.00 0.00 70 1013.6
20260906074517 78 360 0.0 0.0 0.00 0.00 0.00 70 1013.6
20260906074015 78 360 0.0 1.0 0.00 0.00 0.00 70 1013.6
20260906073516 78 360 0.0 2.0 0.00 0.00 0.00 70 1013.7
20260906073014 79 360 0.0 4.0 0.00 0.00 0.00 69 1013.9
20260906072513 79 360 0.0 7.0 0.00 0.00 0.00 69 1014.1
20260906072012 79 360 1.0 7.0 0.00 0.00 0.00 69 1014.2
20260906071511 79 360 0.0 5.0 0.00 0.00 0.00 69 1014.2
20260906071013 79 360 1.0 6.0 0.00 0.00 0.00 69 1014.3
20260906070510 79 360 1.0 6.0 0.00 0.00 0.00 68 1014.4
20260906070010 79 360 2.0 4.0 0.00 0.00 0.00 68 1014.3
20260906065510 79 360 0.0 4.0 0.00 0.00 0.00 68 1014.3
20260906065009 79 360 0.0 4.0 0.00 0.00 0.00 68 1014.4
20260906064509 79 360 0.0 4.0 0.00 0.00 0.00 68 1014.4
20260906064009 79 360 0.0 4.0 0.00 0.00 0.00 68 1014.5
20260906063508 79 360 1.0 4.0 0.00 0.00 0.00 68 1014.4
20260906063007 79 360 0.0 3.0 0.00 0.00 0.00 68 1014.3
20260906062507 79 360 0.0 3.0 0.00 0.00 0.00 67 1014.4
20260906062006 79 360 0.0 2.0 0.00 0.00 0.00 67 1014.6
20260906061505 80 360 0.0 1.0 0.00 0.00 0.00 67 1014.7
20260906061004 80 360 0.0 0.0 0.00 0.00 0.00 66 1014.6
20260906060505 80 360 0.0 1.0 0.00 0.00 0.00 66 1014.6
20260906060003 80 360 0.0 3.0 0.00 0.00 0.00 66 1014.7
20260906055504 80 360 0.0 3.0 0.00 0.00 0.00 66 1014.6
20260906055003 80 360 0.0 6.0 0.00 0.00 0.00 66 1014.6
20260906054502 80 360 0.0 6.0 0.00 0.00 0.00 65 1014.6
20260906054001 80 360 0.0 4.0 0.00 0.00 0.00 65 1014.6
20260906053600 81 360 0.0 3.0 0.00 0.00 0.00 65 1014.6
20260906053109 81 360 0.0 3.0 0.00 0.00 0.00 64 1014.6
20260906052559 81 360 0.0 4.0 0.00 0.00 0.00 64 1014.6
20260906052057 81 360 1.0 6.0 0.00 0.00 0.00 63 1014.7
20260906051600 81 360 2.0 6.0 0.00 0.00 0.00 63 1014.7
20260906051055 81 360 0.0 4.0 0.00 0.00 0.00 62 1014.7
20260906050557 81 360 1.0 4.0 0.00 0.00 0.00 62 1014.8
20260906050055 82 360 0.0 4.0 0.00 0.00 0.00 62 1014.9
20260906045551 82 360 0.0 4.0 0.00 0.00 0.00 62 1014.9
20260906045051 82 360 0.0 4.0 0.00 0.00 0.00 62 1014.9
20260906044551 82 360 1.0 4.0 0.00 0.00 0.00 62 1014.9
20260906044050 82 360 1.0 3.0 0.00 0.00 0.00 62 1014.8
20260906043550 82 360 1.0 7.0 0.00 0.00 0.00 62 1014.8
20260906043055 82 360 0.0 9.0 0.00 0.00 0.00 62 1014.8
20260906042549 83 360 1.0 9.0 0.00 0.00 0.00 62 1014.9
20260906042049 83 360 2.0 7.0 0.00 0.00 0.00 62 1014.9
20260906041552 83 360 2.0 8.0 0.00 0.00 0.00 62 1014.9
20260906041048 83 360 4.0 7.0 0.00 0.00 0.00 62 1014.7
20260906040550 83 360 0.0 9.0 0.00 0.00 0.00 61 1014.7
20260906040049 83 360 2.0 9.0 0.00 0.00 0.00 61 1014.7
20260906035546 83 360 1.0 6.0 0.00 0.00 0.00 61 1014.6
20260906035047 84 360 1.0 5.0 0.00 0.00 0.00 61 1014.6
20260906034546 84 360 1.0 5.0 0.00 0.00 0.00 61 1014.6
20260906034045 84 360 1.0 5.0 0.00 0.00 0.00 60 1014.5
20260906033547 84 360 1.0 6.0 0.00 0.00 0.00 60 1014.4
20260906033058 84 360 1.0 6.0 0.00 0.00 0.00 60 1014.3
20260906032544 84 360 0.0 5.0 0.00 0.00 0.00 60 1014.1
20260906032043 85 360 1.0 7.0 0.00 0.00 0.00 59 1014.1
20260906031543 85 360 3.0 7.0 0.00 0.00 0.00 59 1014.0
20260906031042 85 360 2.0 8.0 0.00 0.00 0.00 59 1013.9
20260906030541 85 360 3.0 8.0 0.00 0.00 0.00 59 1013.7
20260906030045 85 360 3.0 11.0 0.00 0.00 0.00 59 1013.7
20260906025540 85 360 4.0 11.0 0.00 0.00 0.00 58 1013.6
20260906025043 85 360 5.0 11.0 0.00 0.00 0.00 58 1013.4
20260906024545 85 360 3.0 10.0 0.00 0.00 0.00 57 1013.3
20260906024039 85 360 2.0 11.0 0.00 0.00 0.00 56 1013.2
20260906023542 85 360 3.0 11.0 0.00 0.00 0.00 56 1013.1
20260906023048 84 360 4.0 9.0 0.00 0.00 0.00 56 1012.8
20260906022538 84 360 2.0 8.0 0.00 0.00 0.00 56 1012.7
20260906022040 84 360 1.0 5.0 0.00 0.00 0.00 55 1012.4
20260906021537 84 360 1.0 5.0 0.00 0.00 0.00 55 1012.4
20260906021037 84 360 0.0 5.0 0.00 0.00 0.00 55 1012.3
20260906020537 84 360 2.0 8.0 0.00 0.00 0.00 54 1012.3
20260906020051 84 360 3.0 8.0 0.00 0.00 0.00 54 1012.1
20260906015536 85 360 3.0 6.0 0.00 0.00 0.00 54 1012.2
20260906015036 85 360 1.0 2.0 0.00 0.00 0.00 53 1012.0
20260906014537 85 360 0.0 0.0 0.00 0.00 0.00 53 1011.9
20260906014040 85 360 0.0 0.0 0.00 0.00 0.00 52 1012.1
20260906013540 85 360 0.0 0.0 0.00 0.00 0.00 52 1012.0
20260906013047 86 360 0.0 0.0 0.00 0.00 0.00 51 1011.9
20260906012538 86 360 0.0 0.0 0.00 0.00 0.00 51 1011.9
20260906012035 86 360 0.0 0.0 0.00 0.00 0.00 50 1012.0
20260906011544 87 360 0.0 0.0 0.00 0.00 0.00 49 1011.9
20260906011036 87 360 0.0 0.0 0.00 0.00 0.00 48 1011.8
20260906010534 88 360 0.0 0.0 0.00 0.00 0.00 48 1011.7
20260906010040 88 360 0.0 1.0 0.00 0.00 0.00 47 1011.7
20260906005534 88 360 0.0 2.0 0.00 0.00 0.00 47 1011.6
20260906005034 89 360 0.0 3.0 0.00 0.00 0.00 46 1011.6
20260906004534 89 360 1.0 3.0 0.00 0.00 0.00 46 1011.5
20260906004038 89 360 0.0 5.0 0.00 0.00 0.00 46 1011.6
20260906003534 89 360 1.0 6.0 0.00 0.00 0.00 46 1011.5
20260906003035 90 360 2.0 6.0 0.00 0.00 0.00 45 1011.5
20260906002533 90 360 2.0 7.0 0.00 0.00 0.00 45 1011.6
20260906002035 90 360 2.0 7.0 0.00 0.00 0.00 45 1011.6
20260906001535 90 360 0.0 2.0 0.00 0.00 0.00 44 1011.6
20260906001033 91 360 0.0 3.0 0.00 0.00 0.00 43 1011.6
20260906000535 91 360 1.0 4.0 0.00 0.00 0.00 43 1011.5
20260906000048 91 360 1.0 4.0 0.00 0.00 0.00 42 1011.5
20260905235532 91 360 1.0 4.0 0.00 0.00 0.00 43 1011.6
20260905235033 91 360 1.0 5.0 0.00 0.00 0.00 42 1011.5
20260905234533 91 360 1.0 5.0 0.00 0.00 0.00 42 1011.6
20260905234032 92 360 0.0 4.0 0.00 0.00 0.00 42 1011.6
20260905233532 92 360 1.0 5.0 0.00 0.00 0.00 42 1011.6
20260905233035 92 360 0.0 8.0 0.00 0.00 0.00 42 1011.7
20260905232634 92 360 2.0 8.0 0.00 0.00 0.00 42 1011.6
20260905232031 92 360 1.0 6.0 0.00 0.00 0.00 41 1011.5
20260905231531 92 360 1.0 7.0 0.00 0.00 0.00 41 1011.5
20260905231031 92 360 1.0 6.0 0.00 0.00 0.00 42 1011.5
20260905230530 93 360 1.0 8.0 0.00 0.00 0.00 42 1011.4
20260905230029 93 360 3.0 8.0 0.00 0.00 0.00 41 1011.5
20260905225532 93 360 1.0 8.0 0.00 0.00 0.00 41 1011.6
20260905225028 93 360 2.0 7.0 0.00 0.00 0.00 41 1011.5
20260905224527 94 90 3.0 11.0 0.00 0.00 0.00 40 1011.6
20260905224028 94 90 5.0 15.0 0.00 0.00 0.00 38 1011.8
20260905223526 95 76 7.0 15.0 0.00 0.00 0.00 38 1011.7
20260905223026 95 101 3.0 9.0 0.00 0.00 0.00 40 1011.8
20260905222527 94 98 0.0 7.0 0.00 0.00 0.00 39 1011.7
20260905222025 94 98 0.0 8.0 0.00 0.00 0.00 39 1011.7
20260905221524 94 94 2.0 8.0 0.00 0.00 0.00 37 1011.8
20260905221023 94 105 3.0 8.0 0.00 0.00 0.00 39 1011.8
20260905220523 93 101 3.0 8.0 0.00 0.00 0.00 39 1011.8
20260905220023 93 120 0.0 7.0 0.00 0.00 0.00 41 1011.8
20260905215523 94 121 2.0 10.0 0.00 0.00 0.00 40 1011.8
20260905215028 95 109 1.0 10.0 0.00 0.00 0.00 39 1011.8
20260905214525 96 108 3.0 9.0 0.00 0.00 0.00 38 1011.8
20260905214022 96 115 4.0 11.0 0.00 0.00 0.00 38 1011.8
20260905213522 97 65 4.0 11.0 0.00 0.00 0.00 37 1011.9
20260905213020 97 102 2.0 8.0 0.00 0.00 0.00 37 1011.9
20260905212520 96 80 1.0 8.0 0.00 0.00 0.00 38 1011.9
20260905212020 96 117 2.0 7.0 0.00 0.00 0.00 38 1012.0
20260905211519 96 121 0.0 8.0 0.00 0.00 0.00 37 1012.0
20260905211019 96 92 3.0 8.0 0.00 0.00 0.00 36 1012.0
20260905210519 95 323 0.0 5.0 0.00 0.00 0.00 37 1012.0
20260905210018 95 91 1.0 10.0 0.00 0.00 0.00 39 1012.0
20260905205517 95 99 4.0 10.0 0.00 0.00 0.00 38 1012.1
20260905205016 96 121 3.0 13.0 0.00 0.00 0.00 38 1012.2
20260905204515 96 109 2.0 13.0 0.00 0.00 0.00 39 1012.3
20260905204014 95 88 4.0 9.0 0.00 0.00 0.00 39 1012.4
20260905203513 94 104 1.0 6.0 0.00 0.00 0.00 38 1012.5
20260905203013 92 99 0.0 6.0 0.00 0.00 0.00 43 1012.6
20260905202516 92 99 1.0 8.0 0.00 0.00 0.00 42 1012.8
20260905202011 93 99 3.0 13.0 0.00 0.00 0.00 43 1012.9
20260905201511 94 96 5.0 13.0 0.00 0.00 0.00 43 1012.9
20260905201009 94 142 0.0 5.0 0.00 0.00 0.00 44 1013.0
20260905200509 94 142 1.0 15.0 0.00 0.00 0.00 44 1013.1
20260905200008 96 84 2.0 15.0 0.00 0.00 0.00 42 1013.1
20260905195506 96 109 4.0 10.0 0.00 0.00 0.00 43 1013.2
20260905195008 95 137 4.0 10.0 0.00 0.00 0.00 44 1013.3
20260905194506 93 98 2.0 8.0 0.00 0.00 0.00 48 1013.2
20260905194004 91 76 2.0 9.0 0.00 0.00 0.00 52 1013.3
20260905193502 91 94 4.0 9.0 0.00 0.00 0.00 50 1013.6
20260905193006 92 99 4.0 10.0 0.00 0.00 0.00 49 1013.7
20260905192601 93 93 2.0 10.0 0.00 0.00 0.00 49 1013.8
20260905192059 93 111 2.0 10.0 0.00 0.00 0.00 48 1014.0
20260905191603 95 100 3.0 9.0 0.00 0.00 0.00 46 1014.0
20260905191058 95 183 0.0 4.0 0.00 0.00 0.00 46 1014.0
20260905190556 93 238 0.0 5.0 0.00 0.00 0.00 48 1014.1
20260905190055 92 248 1.0 5.0 0.00 0.00 0.00 50 1014.2
20260905185556 92 135 0.0 5.0 0.00 0.00 0.00 48 1014.3
20260905185054 94 135 0.0 6.0 0.00 0.00 0.00 46 1014.4
20260905184612 95 134 3.0 6.0 0.00 0.00 0.00 46 1014.5
20260905184053 94 109 1.0 9.0 0.00 0.00 0.00 48 1014.6
20260905183552 93 95 3.0 9.0 0.00 0.00 0.00 49 1014.7
20260905183053 93 134 1.0 5.0 0.00 0.00 0.00 46 1014.8
20260905182551 93 134 3.0 5.0 0.00 0.00 0.00 48 1014.8
20260905182051 91 138 0.0 4.0 0.00 0.00 0.00 51 1014.8
20260905181557 93 138 0.0 6.0 0.00 0.00 0.00 48 1014.9
20260905181049 94 142 2.0 6.0 0.00 0.00 0.00 47 1014.9
20260905180548 93 128 0.0 4.0 0.00 0.00 0.00 49 1015.0
20260905180051 93 128 1.0 7.0 0.00 0.00 0.00 49 1015.2
20260905175545 93 128 1.0 7.0 0.00 0.00 0.00 46 1015.2
20260905175044 93 133 2.0 5.0 0.00 0.00 0.00 48 1015.2
20260905174543 93 135 2.0 5.0 0.00 0.00 0.00 45 1015.5
20260905174042 93 135 0.0 6.0 0.00 0.00 0.00 50 1015.5
20260905173541 93 136 2.0 6.0 0.00 0.00 0.00 49 1015.4
20260905173039 92 140 0.0 5.0 0.00 0.00 0.00 50 1015.4
20260905172538 92 140 1.0 7.0 0.00 0.00 0.00 51 1015.5
20260905172041 91 140 0.0 9.0 0.00 0.00 0.00 52 1015.5
20260905171535 90 144 2.0 9.0 0.00 0.00 0.00 54 1015.5
20260905171033 90 98 1.0 9.0 0.00 0.00 0.00 54 1015.5
20260905170532 89 140 0.0 3.0 0.00 0.00 0.00 60 1015.7
20260905170033 89 140 0.0 3.0 0.00 0.00 0.00 59 1015.7
20260905165531 89 140 0.0 4.0 0.00 0.00 0.00 59 1015.8
20260905165033 87 140 1.0 5.0 0.00 0.00 0.00 61 1015.8
20260905164531 86 140 0.0 5.0 0.00 0.00 0.00 62 1015.9
20260905164030 86 140 2.0 5.0 0.00 0.00 0.00 61 1015.9
20260905163529 87 140 1.0 5.0 0.00 0.00 0.00 60 1016.0
20260905163029 87 140 0.0 5.0 0.00 0.00 0.00 59 1016.0
20260905162530 88 140 1.0 9.0 0.00 0.00 0.00 57 1016.0
20260905162027 89 138 3.0 9.0 0.00 0.00 0.00 58 1016.0
20260905161526 89 133 1.0 7.0 0.00 0.00 0.00 58 1016.0
20260905161026 88 132 2.0 7.0 0.00 0.00 0.00 60 1016.1
20260905160522 87 135 1.0 6.0 0.00 0.00 0.00 62 1016.0
20260905160027 87 132 1.0 7.0 0.00 0.00 0.00 62 1016.0
20260905155521 86 130 2.0 7.0 0.00 0.00 0.00 62 1016.0
20260905155018 85 127 0.0 8.0 0.00 0.00 0.00 64 1016.0
20260905154518 85 127 2.0 8.0 0.00 0.00 0.00 64 1016.1
20260905154017 85 127 2.0 6.0 0.00 0.00 0.00 65 1015.9
20260905153517 84 132 1.0 6.0 0.00 0.00 0.00 67 1015.9
20260905153014 83 129 0.0 5.0 0.00 0.00 0.00 69 1015.8
20260905152514 82 129 0.0 5.0 0.00 0.00 0.00 69 1015.9
20260905152013 82 128 0.0 5.0 0.00 0.00 0.00 69 1015.9
20260905151513 82 128 0.0 5.0 0.00 0.00 0.00 68 1015.8
20260905151015 83 128 0.0 4.0 0.00 0.00 0.00 68 1015.8
20260905150511 83 127 0.0 6.0 0.00 0.00 0.00 70 1015.8
20260905150010 82 127 1.0 6.0 0.00 0.00 0.00 70 1015.8
20260905145509 82 123 0.0 2.0 0.00 0.00 0.00 70 1015.8
20260905145010 82 123 0.0 4.0 0.00 0.00 0.00 70 1015.7
20260905144508 82 123 0.0 4.0 0.00 0.00 0.00 70 1015.7
20260905144006 82 123 0.0 2.0 0.00 0.00 0.00 71 1015.8
20260905143507 81 123 0.0 3.0 0.00 0.00 0.00 71 1015.8
20260905143003 81 123 0.0 4.0 0.00 0.00 0.00 70 1015.8
20260905142503 80 123 0.0 4.0 0.00 0.00 0.00 69 1015.7
20260905142001 80 123 1.0 4.0 0.00 0.00 0.00 67 1015.7
20260905141600 79 123 1.0 4.0 0.00 0.00 0.00 66 1015.7
20260905141058 79 123 0.0 4.0 0.00 0.00 0.00 62 1015.7
20260905140556 78 123 0.0 4.0 0.00 0.00 0.00 61 1015.6
20260905140056 78 123 0.0 4.0 0.00 0.00 0.00 58 1015.6
20260905135556 77 125 1.0 4.0 0.00 0.00 0.00 54 1015.5
20260905135054 77 125 0.0 5.0 0.00 0.00 0.00 52 1015.4
20260905134554 77 127 0.0 3.0 0.00 0.00 0.00 51 1015.3
20260905134052 77 127 0.0 2.0 0.00 0.00 0.00 50 1015.3
20260905133551 76 127 0.0 1.0 0.00 0.00 0.00 50 1015.3
20260905133052 76 127 0.0 2.0 0.00 0.00 0.00 50 1015.2
20260905132551 76 127 0.0 2.0 0.00 0.00 0.00 50 1015.2
20260905132050 76 127 0.0 1.0 0.00 0.00 0.00 50 1015.2
20260905131550 76 127 0.0 0.0 0.00 0.00 0.00 51 1015.3
20260905131050 75 127 0.0 0.0 0.00 0.00 0.00 52 1015.2
20260905130548 75 127 0.0 0.0 0.00 0.00 0.00 52 1015.1
20260905130049 75 127 0.0 0.0 0.00 0.00 0.00 53 1015.0
20260905125546 75 127 0.0 0.0 0.00 0.00 0.00 53 1014.9
20260905125044 75 127 0.0 0.0 0.00 0.00 0.00 54 1014.9
20260905124543 74 127 0.0 0.0 0.00 0.00 0.00 55 1014.8
20260905124042 74 127 0.0 0.0 0.00 0.00 0.00 55 1014.8
20260905123542 74 127 0.0 0.0 0.00 0.00 0.00 56 1014.8
20260905123041 74 127 0.0 0.0 0.00 0.00 0.00 56 1014.7
20260905122540 74 127 0.0 0.0 0.00 0.00 0.00 57 1014.7
20260905122040 74 127 0.0 0.0 0.00 0.00 0.00 58 1014.7
20260905121539 74 127 0.0 0.0 0.00 0.00 0.00 58 1014.6
20260905121040 74 127 0.0 0.0 0.00 0.00 0.00 59 1014.5
20260905120539 74 127 0.0 0.0 0.00 0.00 0.00 58 1014.4
20260905120045 74 127 0.0 0.0 0.00 0.00 0.00 58 1014.6
20260905115541 75 127 0.0 0.0 0.00 0.00 0.00 58 1014.6
20260905115039 75 127 0.0 0.0 0.00 0.00 0.00 58 1014.6
20260905114538 75 127 0.0 0.0 0.00 0.00 0.00 58 1014.6
20260905114035 75 127 0.0 0.0 0.00 0.00 0.00 59 1014.6
20260905113536 75 127 0.0 0.0 0.00 0.00 0.00 59 1014.6
20260905113046 75 127 0.0 0.0 0.00 0.00 0.00 59 1014.5
20260905112534 75 127 0.0 0.0 0.00 0.00 0.00 58 1014.5
20260905112036 75 127 0.0 0.0 0.00 0.00 0.00 58 1014.4
20260905111553 75 127 0.0 0.0 0.00 0.00 0.00 59 1014.4
20260905111033 75 127 0.0 0.0 0.00 0.00 0.00 59 1014.5
20260905110533 75 127 0.0 0.0 0.00 0.00 0.00 59 1014.5
20260905110040 75 127 0.0 0.0 0.00 0.00 0.00 59 1014.4
20260905105533 75 127 0.0 0.0 0.00 0.00 0.00 60 1014.4